STARLINK-31685 (59578 NORAD) Tracking and Keplerian Element Data

This shows tracking and keplerian element data for the satellite.

Feedback or suggestion? Click here.




ElementValue
Catalog59578
NameSTARLINK-31685
Epoch Orbit830
Epoch Day160.1081518
Epoch Year2024
RAAN54.2022
Inclination43.0006
Eccentricity0.0001492
Argument of Perigee270.5969
Mean Anonmoly89.4717
Mean Motion15.40689559
Decay Rate7.333E-05
L11 59578U 24076Q 24160.10815180 .00007333 00000+0 18271-3 0 9997
L22 59578 43.0006 54.2022 0001492 270.5969 89.4717 15.40689559 8307



Live tracking and technical data element details for STARLINK-31685 (NORAD 59578). STARLINK-31685 can be tracked NOW for your location showing map with azimuth and elevation plus other details from your city location.







IsCatalogInMostPopularTable: catalog: 59578, numindb: 13
Update: records affected: 1



GetName: 59578 STARLINK-31685

Hit Count: updated at: Fri, 14 Jun 2024 19:23:36 GMT